Flag for U.S.A. Weather past 2 weeks in Aliso Viejo, California, U.S.A.

Now
74 °F

Overcast.


Feels Like: 76 °F
Forecast: 66 / 83 °F
Wind: 7 mph from Southeast

Location: John Wayne Airport-Orange County Airport

Current Time: Sep 1, 2014 at 1:57:14 AM

Latest Report: Sep 1, 2014 at 12:53 AM


Visibility: 10 mi

Pressure: 29.81 "Hg

Humidity: 71%

Dew point: 64 °F

Location of Aliso ViejoLocation

Historic Weather in Aliso Viejo — Graph

°F

Aliso Viejo temperature yesterday

Maximum temperature yesterday: 83 °F (at 2:53 PM)
Minimum temperature yesterday: 71 °F (at 3:53 AM)
Average temperature yesterday: 76 °F

Past Weeks' High & Low Weather Summary

 TemperatureHumidityPressure
High92 °F (Aug 27, 11:53 AM)81% (Aug 18, 3:53 AM)30.03 "Hg (Aug 18, 3:53 AM)
Low68 °F (Aug 23, 5:53 AM)23% (Aug 27, 4:53 PM)29.74 "Hg (Aug 30, 5:53 PM)
Average75 °F62%29.89 "Hg
* Reported Aug 17 12:53 AM — Sep 1 12:53 AM, Aliso Viejo, Weather by CustomWeather, © 2014

Note: Actual official high and low records may vary slightly from our data, if they occured in-between our weather recording intervals... More about our weather records

Advertising

Aliso Viejo weather history for previous 24 hours

 ConditionsComfort  
Time TempWeatherWind HumidityBarometerVisibility
12:53 AM
Sep 1
74 °FOvercast.7 mph71%29.81 "Hg10 mi
11:53 PM
Aug 31
74 °FPassing clouds.5 mph74%29.81 "Hg10 mi
10:53 PM75 °FPassing clouds.5 mph74%29.81 "Hg10 mi
9:53 PM75 °FPassing clouds.9 mph74%29.80 "Hg10 mi
8:53 PM75 °FPassing clouds.7 mph74%29.79 "Hg10 mi
7:53 PM75 °FScattered clouds.9 mph74%29.78 "Hg10 mi
6:53 PM77 °FScattered clouds.10 mph71%29.76 "Hg10 mi
5:53 PM79 °FScattered clouds.14 mph67%29.77 "Hg10 mi
4:53 PM80 °FPassing clouds.12 mph62%29.77 "Hg10 mi
3:53 PM82 °FPassing clouds.13 mph56%29.77 "Hg10 mi
2:53 PM83 °FPassing clouds.13 mph53%29.78 "Hg10 mi
1:53 PM82 °FPassing clouds.13 mph55%29.80 "Hg10 mi
12:53 PM82 °FPassing clouds.9 mph55%29.81 "Hg10 mi
11:53 AM80 °FScattered clouds.8 mph60%29.83 "Hg10 mi
10:53 AM80 °FScattered clouds.7 mph60%29.83 "Hg10 mi
9:53 AM78 °FScattered clouds.3 mph62%29.83 "Hg10 mi
8:53 AM75 °FOvercast.3 mph69%29.83 "Hg10 mi
7:53 AM73 °FPartly sunny.No wind74%29.82 "Hg10 mi
6:53 AM73 °FOvercast.No wind76%29.82 "Hg10 mi
5:53 AM72 °FPassing clouds.No wind78%29.80 "Hg10 mi
4:53 AM72 °FClear.3 mph76%29.78 "Hg10 mi
3:53 AM71 °FPassing clouds.3 mph76%29.78 "Hg10 mi
2:53 AM72 °FClear.No wind71%29.78 "Hg10 mi
1:53 AM72 °FClear.3 mph81%29.78 "Hg10 mi
Weather by CustomWeather, © 2014

See weather overviewHow to use our weather pages